EW1967 Laquila IT current weather conditions

sailwx.info

Wind from 175

Air temperature 9.4° C
Dewpoint 6.0° C

Last reported at 2019-Dec-06 15:00 UTC.
Time now 2019-Dec-06 15:35 UTC

Location: N 42°22' E 013°15'.
View on Google Maps.

See reports from other nearby stations

  
Tides and Currents Weather Stations Pressure Air Temp Water Temp Dewpoint Dewpoint Depression Visibility Wind Speed Wind Dir Waves Ship Positions
date/time (UTC)wind fromknots sea level pressurealtimeterstation pressurevisibilityair tempwater tempwave heightnotes
2019-Dec-06 15:00 175 9.4
2019-Dec-06 14:47 175 9.4
2019-Dec-06 14:32 175 10.0
2019-Dec-06 14:16 175 10.0
2019-Dec-06 14:02 175 10.0
2019-Dec-06 13:46 175 10.0
2019-Dec-06 13:32 086 10.0
2019-Dec-06 13:18 136 10.0
2019-Dec-06 13:01 111 10.6
2019-Dec-06 12:46 272 11.1
2019-Dec-06 12:31 311 10.6
2019-Dec-06 12:16 017 10.0
2019-Dec-06 12:00 117 9.4
2019-Dec-06 11:45 094 9.4
2019-Dec-06 11:32 031 8.9
2019-Dec-06 11:15 074 8.9
2019-Dec-06 11:01 136 0 gusting 3 8.3
2019-Dec-06 10:45 073 8.3
2019-Dec-06 10:31 148 7.8
2019-Dec-06 10:15 098 6.7
2019-Dec-06 10:00 040 6.1
2019-Dec-06 09:45 142 5.0
2019-Dec-06 09:30 128 3.9
2019-Dec-06 09:15 127 4.4
2019-Dec-06 09:00 069 3.9
2019-Dec-06 08:47 028 3.3
2019-Dec-06 08:31 131 2.8
2019-Dec-06 08:16 134 0 gusting 2 2.8
2019-Dec-06 08:01 331 1.7
2019-Dec-06 07:47 347 1.7
2019-Dec-06 07:31 016 0.6
2019-Dec-06 07:16 016 0 gusting 1 1.1
2019-Dec-06 07:01 142 0 gusting 2 0.6
2019-Dec-06 06:46 336 -0.0
2019-Dec-06 06:30 195 -0.0
2019-Dec-06 06:16 194 -0.0
2019-Dec-06 06:00 195 -0.0
2019-Dec-06 05:46 194 -0.0
2019-Dec-06 05:30 195 -0.0
2019-Dec-06 05:16 267 -0.0
2019-Dec-06 05:01 304 -0.0
2019-Dec-06 04:46 042 -0.0
2019-Dec-06 04:31 195 1 gusting 3 -0.0
2019-Dec-06 04:15 319 -0.6
2019-Dec-06 04:01 150 1 gusting 3 -0.6
2019-Dec-06 03:45 263 -0.0
2019-Dec-06 03:30 166 -0.6
2019-Dec-06 03:15 145 0 gusting 1 -0.6
2019-Dec-06 03:01 311 0 gusting 1 -1.1
2019-Dec-06 02:46 176 -0.6
2019-Dec-06 02:30 177 -0.6
2019-Dec-06 02:15 177 -0.6
2019-Dec-06 02:00 180 -0.6
2019-Dec-06 01:45 225 -0.0
2019-Dec-06 01:30 225 -0.0
2019-Dec-06 01:15 225 -0.0
2019-Dec-06 01:00 132 -0.0
2019-Dec-06 00:45 318 -0.0
2019-Dec-06 00:30 030 -0.0
2019-Dec-06 00:15 030 -0.6
2019-Dec-06 00:00 152 -0.0
2019-Dec-05 23:45 294 -0.0
2019-Dec-05 23:30 200 -0.0
2019-Dec-05 23:15 200 0.6
2019-Dec-05 23:01 200 -0.0
2019-Dec-05 22:47 200 0.6
2019-Dec-05 22:31 200 0.6
2019-Dec-05 22:16 200 1.1
2019-Dec-05 22:02 200 1.1
2019-Dec-05 21:46 200 1.1
2019-Dec-05 21:31 200 1.1
2019-Dec-05 21:16 200 1.1
2019-Dec-05 21:02 169 1.1
2019-Dec-05 20:46 272 1.7
2019-Dec-05 20:31 184 1.7
2019-Dec-05 20:16 254 2.2
2019-Dec-05 20:01 254 1.7
2019-Dec-05 19:47 253 1.7
2019-Dec-05 19:32 254 1.7
2019-Dec-05 19:16 254 2.2
2019-Dec-05 19:02 253 2.2
2019-Dec-05 18:47 254 2.2
2019-Dec-05 18:31 254 2.2
2019-Dec-05 18:16 253 2.2
2019-Dec-05 18:01 254 2.8
2019-Dec-05 17:46 253 2.8
2019-Dec-05 17:31 253 2.8
2019-Dec-05 17:16 253 2.8
2019-Dec-05 17:00 254 3.3
2019-Dec-05 16:46 254 0 gusting 1 3.9
2019-Dec-05 16:31 253 0 gusting 2 3.9
2019-Dec-05 16:15 286 3.9
2019-Dec-05 16:01 314 4.4
2019-Dec-05 15:46 019 5.0
2019-Dec-05 15:30 019 5.6
2019-Dec-05 15:16 019 6.1
2019-Dec-05 15:01 019 6.1
2019-Dec-05 14:46 022 6.1
2019-Dec-05 14:30 005 6.7
2019-Dec-05 14:17 053 6.7
2019-Dec-05 14:00 016 6.7
2019-Dec-05 13:45 056 0 gusting 2 6.1
2019-Dec-05 13:30 101 0 gusting 2 6.1
2019-Dec-05 13:16 040 6.1
2019-Dec-05 13:00 035 6.1
2019-Dec-05 12:46 022 0 gusting 3 6.1
2019-Dec-05 12:30 021 6.1
2019-Dec-05 12:16 092 0 gusting 2 6.1
2019-Dec-05 12:00 046 6.1
2019-Dec-05 11:45 103 6.1
2019-Dec-05 11:31 299 5.6
2019-Dec-05 11:15 046 5.0
2019-Dec-05 11:00 080 5.0
2019-Dec-05 10:45 080 4.4
2019-Dec-05 10:30 057 4.4
2019-Dec-05 10:15 082 3.9
2019-Dec-05 10:00 084 2.8
2019-Dec-05 09:48 084 2.8
2019-Dec-05 09:32 044 2.2
2019-Dec-05 09:17 044 2.2
2019-Dec-05 09:01 044 1.7
2019-Dec-05 08:46 042 1.7
2019-Dec-05 08:31 042 1.1
2019-Dec-05 08:16 042 1.1
2019-Dec-05 08:01 042 1.1
2019-Dec-05 07:46 033 1.1
2019-Dec-05 07:30 033 1.1
2019-Dec-05 07:16 033 1.1
2019-Dec-05 07:01 033 0.6
2019-Dec-05 06:45 033 0.6
2019-Dec-05 06:31 033 0.6
2019-Dec-05 06:16 033 0.6
2019-Dec-05 06:01 033 0.6
2019-Dec-05 05:45 033 0.6
2019-Dec-05 05:30 033 0.6
2019-Dec-05 05:15 033 0.6
2019-Dec-05 05:00 033 0.6
2019-Dec-05 04:45 033 0.6
2019-Dec-05 04:30 033 0.6
2019-Dec-05 04:15 033 0.6
2019-Dec-05 04:00 070 0.6
2019-Dec-05 03:45 070 -0.0
2019-Dec-05 03:30 070 -0.0
2019-Dec-05 03:15 070 -0.0
2019-Dec-05 03:01 070 -0.0
2019-Dec-05 02:46 131 0.6
2019-Dec-05 02:30 131 0.6
2019-Dec-05 02:15 030 -0.0
2019-Dec-05 02:00 028 -0.0
2019-Dec-05 01:45 154 -0.0
2019-Dec-05 01:30 154 -0.0
2019-Dec-05 01:15 297 -0.0
2019-Dec-05 01:00 171 -0.0
2019-Dec-05 00:45 130 -0.0
2019-Dec-05 00:30 083 -0.0
2019-Dec-05 00:15 083 -0.0
2019-Dec-05 00:00 148 -0.0
2019-Dec-04 23:46 080 -0.0
2019-Dec-04 23:32 080 -0.0
2019-Dec-04 23:17 080 -0.0
2019-Dec-04 23:02 196 -0.0
2019-Dec-04 22:46 196 -0.6
2019-Dec-04 22:32 196 -0.0
2019-Dec-04 22:16 339 -0.0
2019-Dec-04 22:02 005 -0.6
2019-Dec-04 21:47 005 -0.0
2019-Dec-04 21:31 005 -0.0
2019-Dec-04 21:16 005 -0.0
2019-Dec-04 21:02 005 -0.0
2019-Dec-04 20:46 005 -0.0
2019-Dec-04 20:31 005 -0.0
2019-Dec-04 20:17 005 -0.0
2019-Dec-04 20:02 005 -0.0
2019-Dec-04 19:46 009 -0.0
2019-Dec-04 19:31 005 -0.0
2019-Dec-04 19:16 306 0.6
2019-Dec-04 19:01 071 1.1
2019-Dec-04 18:47 163 0 gusting 1 1.1
2019-Dec-04 18:32 085 0 gusting 4 2.2
2019-Dec-04 18:16 273 1 gusting 3 1.7
2019-Dec-04 18:01 271 2 gusting 4 2.2
2019-Dec-04 17:46 293 2 gusting 5 2.8
2019-Dec-04 17:32 310 3 gusting 6 2.8
2019-Dec-04 17:16 308 3 gusting 5 2.8
2019-Dec-04 17:01 328 2 gusting 6 2.8
2019-Dec-04 16:46 315 1 gusting 4 2.8
2019-Dec-04 16:31 306 0 gusting 5 3.3
2019-Dec-04 16:16 304 2 gusting 4 3.3
2019-Dec-04 16:05 315 1 gusting 6 3.3
2019-Dec-04 15:46 316 2 gusting 4 3.9
2019-Dec-04 15:32 329 1 gusting 6 3.9
2019-Dec-04 15:16 321 1 gusting 5 4.4
2019-Dec-04 15:00 337 1 gusting 5 5.0